Location: Casco Volunteer Fire Department
(44.5576°N, 87.6146°W)
Time: 23:58:16
(UTC+00:00)

BlueWalker 3 - Pass Details

Date: 18 March 2026
Orbit: 449 x 457 km, 53.2° (Epoch: 14 April)

Event Time Altitude Azimuth Distance (km) Brightness Sun altitude
Exits shadow 09:46:58 30° 133° (SE) 844 3.2 -23.4°
Drops below altitude 10° 09:48:54 10° 130° (SE) 1,591 4.8 -23.1°
Sets 09:51:02 0° 129° (SE) 2,461 5.8 -22.8°
